Wind_Speed
55 54 54 53 53 52 50 48 45 43 42 40 40 41 42 42 41 39 37 37 37 37 38 39 40 40 40 40 39 39 39 39 40 43 47 51 54 55 53 51 49 48 48 49 49 50 51 51 50 48 46 45 45 45 45 45 45 45 45 45 45 44 44 42 41 41 41 41 40 39 38 37 36 35 34 34 34 35 36 37 38 37 37 36 34 33
55 55 55 55 54 53 51 48 46 45 44 44 44 45 45 45 43 41 38 37 37 37 38 38 39 39 39 39 38 38 38 38 39 41 44 49 53 55 55 53 51 50 50 50 51 52 53 54 53 51 49 47 46 46 46 46 45 45 45 45 45 45 44 43 43 43 43 43 43 42 41 40 39 38 37 36 36 37 38 39 39 39 38 37 35 33
56 56 56 56 56 55 53 50 48 47 47 48 48 48 47 47 45 43 41 40 39 39 39 39 39 39 39 39 39 39 39 39 39 40 42 46 50 53 55 55 54 53 54 54 55 55 56 57 56 54 52 50 49 49 49 48 47 46 46 46 46 46 45 45 45 45 45 46 46 45 44 44 43 42 40 38 38 39 40 40 39 39 38 37 36 34
57 57 58 58 57 56 54 52 51 51 51 52 51 50 49 48 46 44 43 43 43 43 42 42 40 40 39 39 39 40 40 40 39 40 41 44 47 50 52 54 55 56 57 58 60 61 62 61 60 58 56 54 53 53 52 52 51 50 49 48 47 47 47 47 47 47 47 48 48 48 47 46 45 44 42 41 41 41 41 40 39 38 37 37 36 34
58 58 58 58 58 57 56 55 55 55 56 56 55 53 51 50 48 46 45 45 45 45 45 43 42 41 40 40 40 40 41 40 40 40 41 43 45 48 50 52 54 55 57 59 61 63 65 65 65 64 62 60 58 57 57 56 55 54 53 52 51 50 50 50 50 50 50 51 51 50 49 49 48 46 45 43 43 43 41 40 39 38 38 37 36 35
59 58 58 59 59 58 57 57 58 60 61 61 59 56 54 52 50 49 48 47 47 46 45 43 42 41 41 41 40 40 40 40 40 40 41 43 45 47 49 51 53 55 57 58 60 61 63 65 67 67 67 65 64 62 61 60 59 58 57 55 54 54 53 53 53 53 53 53 53 52 51 51 50 49 48 46 45 44 42 40 40 39 39 39 37 36
59 58 58 59 60 60 59 60 61 63 65 65 63 60 56 54 53 52 51 49 47 46 44 43 42 42 42 41 41 41 40 40 40 41 41 43 44 46 49 51 53 54 56 57 58 59 60 62 64 66 67 68 67 66 65 64 63 61 60 58 57 56 56 55 55 55 55 55 55 55 54 53 53 52 51 50 48 45 44 42 42 41 41 40 38 37
60 59 59 60 61 61 62 62 63 64 65 65 64 61 58 56 55 54 53 51 48 46 43 42 42 42 42 42 42 41 41 41 41 42 43 44 45 47 48 50 52 54 55 56 56 56 56 56 58 60 63 65 66 67 67 66 65 64 62 61 59 58 58 58 58 57 57 58 57 57 57 56 55 55 54 53 52 50 48 46 45 44 43 41 40 39
61 61 61 62 63 63 63 64 64 64 65 64 63 61 60 58 57 56 55 52 49 46 43 42 42 43 43 43 43 43 42 42 43 43 44 45 46 47 48 49 51 52 53 53 53 52 51 51 51 53 55 57 59 62 64 66 67 66 65 64 62 61 60 59 60 60 60 60 59 59 59 59 58 57 57 56 55 54 53 51 49 46 44 43 41 40
63 63 63 63 64 64 65 65 65 65 65 64 63 61 60 59 58 57 55 53 49 46 44 43 43 44 44 44 44 43 43 43 44 44 45 46 46 47 48 48 49 50 50 50 49 48 47 46 46 46 47 48 50 52 55 59 63 65 67 67 66 64 62 62 61 61 61 61 61 61 61 61 60 60 59 59 58 57 56 54 51 48 45 43 42 40
64 64 64 64 65 65 66 66 66 66 65 63 62 61 60 59 58 56 53 51 48 45 43 43 44 44 44 44 44 44 44 44 45 45 46 46 47 47 47 48 48 48 48 48 47 46 45 44 43 43 43 43 43 43 44 47 51 56 59 63 65 66 65 64 64 63 63 63 63 63 63 63 62 62 62 61 60 59 58 56 53 49 46 43 42 40
64 64 64 65 66 66 67 68 68 67 65 64 63 62 61 61 60 58 55 52 50 47 45 45 45 45 45 44 44 43 43 44 45 45 46 46 47 48 48 48 48 48 48 47 47 46 45 44 44 43 42 42 41 40 39 40 41 43 47 50 54 58 61 62 63 64 65 65 65 65 65 65 64 64 63 63 62 60 59 57 54 50 46 43 42 40
64 65 65 65 66 67 68 68 68 68 66 65 64 64 63 63 62 61 59 57 54 52 50 49 48 47 47 45 44 43 43 44 44 45 46 46 47 48 48 49 49 49 49 48 48 47 46 45 45 44 43 43 42 41 40 39 39 39 40 41 43 46 49 53 57 60 63 65 66 67 67 67 66 65 63 62 60 59 57 56 53 49 46 43 42 40
64 64 64 65 66 67 68 68 68 67 67 66 65 65 64 63 62 61 60 58 57 55 54 53 52 50 48 46 45 44 43 43 44 44 45 46 47 47 48 48 49 49 49 49 49 48 47 46 45 45 44 44 43 42 41 40 40 40 39 39 40 41 43 47 51 55 59 62 64 66 66 66 65 63 60 57 55 54 53 52 50 47 44 42 41 41
62 62 63 65 66 67 67 68 67 65 64 64 64 64 64 63 62 61 60 58 57 56 55 54 53 51 49 47 46 45 44 44 44 45 46 46 47 47 47 47 48 48 48 48 49 48 47 46 46 45 45 44 43 42 41 41 40 41 41 41 41 42 43 46 48 51 54 56 58 60 60 60 58 56 53 51 50 49 49 48 46 45 43 42 41 41
57 59 60 61 62 63 64 65 64 63 61 60 60 60 59 60 60 60 59 58 58 57 56 55 54 52 50 49 49 48 48 47 47 47 48 48 47 47 46 47 47 47 48 48 48 48 47 46 46 45 45 44 43 42 41 40 40 41 41 42 42 43 44 46 47 48 49 50 51 52 52 51 50 49 47 47 47 47 47 46 45 44 43 43 42 43
54 55 55 56 56 56 58 59 59 59 59 58 57 57 56 57 58 58 58 59 59 59 59 59 57 55 54 53 53 53 52 51 50 50 50 49 49 48 47 47 47 47 47 47 46 46 45 45 45 44 44 43 42 41 40 40 40 41 42 43 43 44 45 45 45 45 45 45 45 45 46 46 45 45 45 47 48 48 47 47 47 46 46 45 45 45
52 52 53 53 52 52 52 52 52 54 55 55 56 56 57 57 57 58 58 59 60 61 62 62 62 61 59 58 58 58 56 55 54 53 52 51 50 48 47 47 47 46 46 45 45 44 44 43 43 43 42 41 40 40 40 40 41 42 43 44 45 46 46 45 43 42 42 42 42 42 43 43 43 44 46 48 49 50 49 49 48 48 47 47 46 46
53 53 53 52 52 52 50 49 49 49 49 51 53 54 55 57 58 59 59 61 61 63 64 65 65 65 64 63 63 62 60 58 56 55 53 52 50 48 47 47 46 46 45 44 44 43 42 42 41 41 40 39 39 39 40 41 42 43 45 46 46 46 45 44 42 41 41 41 41 41 41 42 43 44 47 49 50 50 49 49 49 48 48 47 47 47
55 55 55 54 54 53 51 50 48 47 47 48 50 51 52 55 57 59 61 62 63 64 65 65 66 67 67 67 66 65 64 61 58 56 54 52 50 49 47 47 46 46 45 44 43 42 41 41 40 40 39 39 39 39 40 41 43 44 46 47 47 46 45 43 42 41 41 41 40 40 41 42 43 44 46 48 49 49 48 48 48 48 48 48 47 47
55 56 57 57 56 55 54 52 50 48 47 46 46 47 49 51 53 56 59 62 63 65 66 66 67 68 68 67 66 66 65 62 59 56 54 52 50 49 48 47 46 46 45 44 42 41 41 40 40 40 39 39 39 40 41 43 44 45 46 47 47 46 44 42 41 40 41 40 40 40 41 41 43 44 45 47 47 48 48 48 48 48 48 48 47 46
54 55 57 57 58 58 58 56 54 52 49 47 45 45 46 46 47 50 54 56 59 61 63 64 66 66 66 65 64 63 63 60 58 57 55 53 52 50 49 48 47 46 45 44 42 41 41 41 41 40 40 39 40 41 42 44 45 46 46 47 46 45 43 41 40 40 40 40 40 40 41 42 43 44 45 46 47 47 48 48 48 48 48 47 46 44
53 54 54 55 56 58 59 59 58 56 53 50 48 46 46 45 45 46 48 50 53 56 59 61 63 63 62 61 60 59 58 57 57 57 55 55 54 52 50 49 48 47 46 44 43 42 42 42 41 41 40 40 40 41 43 44 45 45 45 46 45 44 42 40 40 40 41 42 43 43 43 44 44 44 45 46 47 47 47 47 47 47 46 45 43 41
51 51 52 53 54 55 57 58 59 59 57 55 53 51 49 48 47 47 47 48 50 52 55 56 57 56 55 56 55 55 55 55 56 56 56 56 55 54 52 50 49 48 46 44 43 42 42 42 42 41 40 39 39 40 42 43 43 44 44 44 43 42 41 40 41 42 44 46 47 47 47 46 46 46 46 47 47 47 47 46 46 45 43 42 40 38
48 48 49 50 52 53 54 56 57 58 59 59 58 56 54 52 51 50 49 49 49 50 51 51 51 51 51 52 53 53 54 54 54 55 56 56 56 55 53 51 50 48 47 45 44 43 42 42 42 41 40 39 39 39 40 41 42 42 43 43 42 41 41 41 42 43 45 46 48 48 48 48 47 47 48 47 47 46 45 44 43 42 40 39 37 36
46 46 47 48 49 50 51 53 54 55 57 57 58 58 58 57 55 54 52 51 50 50 49 49 50 51 52 52 53 53 53 52 52 53 54 54 54 54 53 51 50 48 48 47 45 44 43 42 42 41 40 40 39 39 39 39 40 41 42 43 42 41 41 40 41 42 43 44 46 47 48 48 48 48 48 47 46 44 43 42 41 39 38 36 35 35
44 44 45 45 46 47 48 49 51 52 53 54 55 56 58 58 58 58 57 55 54 52 51 51 52 52 52 52 52 52 51 48 47 48 50 51 51 51 51 50 49 48 48 47 47 45 44 43 42 42 41 41 40 39 39 39 40 41 43 43 43 42 41 40 40 40 41 42 43 45 47 48 48 47 46 45 43 42 41 40 38 37 36 35 35 35
41 42 43 43 43 43 44 45 46 48 49 51 52 53 54 55 56 57 59 60 58 56 55 54 54 53 52 51 50 49 47 44 42 42 44 46 47 47 48 48 48 47 47 47 47 47 46 44 43 43 42 42 41 40 40 40 40 41 43 44 44 43 42 41 41 41 41 41 42 43 45 46 46 45 44 43 41 40 39 38 37 36 35 35 35 35
37 39 40 40 40 40 40 40 41 43 45 47 48 50 51 51 50 52 56 59 60 60 59 58 56 55 53 52 50 48 44 42 40 39 39 41 43 46 47 47 47 48 48 48 48 48 47 46 45 44 44 43 42 41 41 40 40 41 42 43 43 43 42 43 44 44 43 42 42 43 44 45 45 43 42 41 40 39 38 38 37 36 36 35 35 35
33 34 35 36 37 37 37 37 37 38 40 41 43 46 47 48 47 48 50 53 56 59 61 61 60 58 56 54 51 47 44 43 41 39 37 38 41 44 46 47 48 49 49 49 49 49 49 48 47 46 45 44 43 42 42 41 41 41 41 42 42 42 42 43 45 45 45 43 43 43 44 44 43 42 41 41 40 39 39 38 38 37 36 36 35 35
29 30 31 32 33 34 34 34 34 35 35 36 38 40 42 44 45 45 45 46 49 53 57 60 61 61 60 57 54 52 49 47 45 42 39 39 40 41 42 44 47 49 50 51 51 51 51 51 50 49 47 46 45 44 43 42 42 41 41 41 40 40 41 43 45 45 45 44 43 43 43 43 43 42 42 42 41 41 40 39 38 38 37 36 35 35
26 27 28 29 30 30 31 32 32 32 32 32 33 35 37 39 41 42 43 43 44 46 50 54 59 61 63 62 61 59 56 52 48 45 43 42 41 40 39 42 44 46 49 51 52 53 53 54 53 52 50 49 47 46 45 44 44 43 42 41 41 41 41 43 44 44 43 42 41 41 41 42 43 43 43 43 43 42 41 40 39 38 37 36 36 36
23 24 25 26 27 27 28 29 29 30 30 30 30 31 32 34 36 38 40 41 41 42 43 47 52 57 62 64 65 64 61 57 53 50 48 46 44 41 39 40 41 42 44 48 51 53 54 55 55 54 53 52 50 49 48 47 46 45 44 43 43 43 43 43 43 43 42 40 39 38 39 41 42 44 44 44 44 43 42 41 40 39 38 37 37 37
21 22 23 24 24 25 26 26 27 27 28 28 29 29 29 30 31 33 35 37 39 40 40 41 44 49 55 60 64 66 66 64 60 57 54 51 48 45 42 41 41 41 42 44 48 51 54 55 56 55 55 54 53 51 50 49 48 47 46 45 45 44 44 43 43 42 42 40 38 36 36 38 40 42 43 44 44 44 43 41 40 39 38 37 37 37
19 20 21 22 23 24 25 25 25 26 26 26 27 27 28 28 29 30 31 33 35 37 39 39 40 42 46 51 56 60 63 65 64 62 59 57 54 50 47 44 43 42 41 42 44 48 51 54 56 56 56 55 54 52 51 50 49 48 48 47 46 46 45 44 43 43 43 41 39 37 36 36 37 39 41 43 44 44 43 42 41 40 39 38 38 38
17 19 20 21 22 23 24 24 24 24 24 25 25 25 26 26 27 28 29 30 31 33 35 36 37 38 40 43 46 51 55 58 60 61 60 60 58 55 52 49 47 45 43 43 43 45 48 51 54 55 56 55 54 53 52 51 50 50 49 49 48 47 46 45 44 43 43 42 41 39 37 36 36 37 39 41 42 43 43 42 41 40 40 39 39 39
17 18 19 20 21 22 22 22 22 22 22 23 23 23 24 24 25 26 26 27 28 30 31 33 34 35 36 37 39 41 45 49 51 54 57 58 59 57 56 54 51 49 47 46 44 44 46 48 50 53 54 54 54 53 52 52 51 51 50 50 49 49 48 46 45 44 43 43 42 41 39 38 37 37 38 40 41 42 43 42 42 41 40 40 39 39
17 17 17 18 19 20 21 21 20 20 20 20 20 21 21 22 23 23 24 25 26 27 28 29 31 32 33 33 34 34 36 38 41 45 49 53 56 57 58 57 55 53 52 50 48 46 46 46 47 49 51 52 53 53 53 52 52 51 51 51 50 50 48 47 46 45 44 43 42 42 41 40 38 38 38 39 41 42 43 43 43 42 41 41 40 39
17 16 16 17 18 19 19 19 18 18 18 18 19 19 19 20 21 21 22 23 24 25 26 27 28 29 30 31 31 31 31 32 34 37 40 45 49 54 56 58 58 57 56 54 52 50 48 48 47 47 48 49 50 51 52 52 52 51 51 51 51 50 50 48 47 46 44 44 43 42 42 41 40 39 39 39 41 42 44 44 44 44 43 42 41 41
17 16 16 16 17 17 18 18 17 17 17 17 17 17 18 18 19 19 20 21 22 23 24 25 26 27 28 29 30 30 30 30 30 32 34 37 42 47 51 55 57 59 59 58 57 55 52 51 50 49 48 47 48 49 50 51 51 51 50 49 49 50 50 49 48 47 46 44 43 43 42 42 41 40 40 39 40 42 43 44 45 45 44 44 43 42
18 17 16 16 16 17 17 17 17 17 17 16 16 16 16 16 16 17 17 18 19 20 22 23 23 24 25 26 27 28 29 29 29 29 30 33 36 39 44 49 53 56 58 60 60 59 57 55 53 51 49 48 48 48 48 49 50 50 49 48 48 49 50 50 49 48 47 46 45 44 43 43 42 41 41 40 40 40 42 43 45 45 45 45 44 44
18 18 17 17 17 17 17 17 17 17 17 16 16 16 15 15 15 15 15 16 16 18 19 19 20 21 22 23 24 25 26 27 28 28 29 30 32 34 37 41 46 51 54 57 60 61 60 59 57 55 53 51 50 49 48 48 49 49 49 48 47 48 48 49 50 49 48 47 46 45 44 44 43 42 41 40 39 40 41 43 44 45 46 45 45 45
19 18 18 17 18 18 18 18 17 17 17 17 17 16 16 15 15 15 15 15 15 16 17 18 19 19 20 20 21 22 23 24 26 26 27 28 29 31 33 36 39 43 48 51 55 58 61 62 61 59 58 56 54 52 51 49 48 48 48 48 47 46 45 47 48 49 49 48 48 47 46 45 44 43 42 41 40 39 40 42 44 45 46 46 45 45
20 19 18 18 18 18 18 18 18 18 18 18 18 18 17 17 16 16 16 16 16 16 16 17 17 18 19 19 19 19 20 21 23 24 25 27 28 29 30 32 34 37 40 44 47 51 55 59 61 62 63 61 59 57 55 52 50 48 48 47 46 46 45 45 45 47 48 49 49 48 47 46 45 43 42 41 40 40 40 41 43 45 46 46 46 46
21 21 20 20 19 19 19 19 19 19 19 20 20 20 19 19 18 18 18 18 18 17 17 17 17 18 18 19 19 19 19 19 20 22 23 25 26 27 28 30 31 33 35 38 41 44 47 51 56 61 64 65 63 61 59 56 54 51 49 47 47 47 46 45 44 44 46 47 48 48 48 47 46 44 43 41 40 40 40 41 43 45 46 47 47 46
23 23 22 21 21 21 21 21 21 21 21 21 22 21 21 21 21 21 21 20 20 19 19 18 19 19 20 20 19 19 19 19 20 20 21 22 24 25 27 28 29 30 32 34 36 39 42 45 49 54 58 61 63 63 62 60 58 55 53 50 48 47 47 45 44 43 44 45 46 47 48 48 47 46 44 43 41 41 41 41 43 44 46 47 47 47
24 24 23 23 23 23 23 22 22 23 23 23 23 23 23 23 23 23 23 22 22 21 20 20 20 20 21 21 21 20 21 21 20 20 20 21 22 24 25 27 28 29 30 32 33 35 38 41 44 47 51 54 58 61 64 64 62 60 57 54 52 49 48 46 45 44 43 43 43 45 46 48 48 47 46 44 43 42 42 42 43 44 45 46 47 48
25 25 25 24 24 24 24 24 24 24 24 24 24 24 24 25 25 25 25 24 24 23 22 22 21 22 22 22 22 22 22 23 22 22 21 22 22 23 24 26 27 28 29 31 32 33 35 37 40 42 46 49 52 56 60 63 64 63 62 60 57 54 51 48 46 45 43 42 42 43 44 46 47 48 47 46 45 44 44 44 44 45 45 46 47 48
26 26 26 26 26 25 25 25 26 26 26 25 25 26 26 26 26 27 27 26 26 25 24 24 23 23 22 22 22 23 23 24 24 24 23 24 24 24 25 25 26 27 28 29 30 32 33 35 37 39 42 44 47 51 54 57 60 62 63 63 62 59 56 53 50 47 45 43 42 42 42 44 46 47 48 48 48 47 47 46 46 46 46 47 47 48
26 27 27 27 27 27 27 27 27 27 27 27 27 27 27 27 27 27 27 27 27 27 26 26 25 24 24 23 23 23 24 24 25 25 25 26 26 26 26 26 26 26 27 28 29 30 31 33 34 36 38 40 42 45 48 51 54 56 58 60 62 62 61 58 55 52 49 46 44 42 41 42 43 45 47 49 50 50 49 49 49 48 48 48 48 48
26 26 27 27 27 28 28 28 28 28 29 29 29 28 28 28 28 28 28 28 28 27 27 27 27 26 26 25 24 24 24 24 25 25 26 27 27 27 27 26 26 26 26 26 27 28 29 30 32 33 35 37 39 41 43 45 47 48 50 53 57 60 61 61 60 58 55 51 48 45 43 41 41 42 44 47 49 51 52 52 51 51 50 49 49 49
Wind_Direction
271 272 272 273 273 273 272 271 270 270 269 269 270 271 272 271 270 269 267 267 267 268 270 271 271 269 266 263 261 261 262 261 259 254 249 245 243 242 240 237 235 235 236 237 237 238 239 240 241 240 240 238 237 236 236 237 239 241 243 245 246 246 245 243 241 240 241 241 242 242 243 243 245 245 246 248 249 251 253 255 258 261 264 266 268 270
268 269 270 271 271 271 270 269 267 267 267 268 269 270 271 270 270 268 267 266 267 269 271 273 273 271 268 264 262 261 262 263 261 258 253 249 245 243 240 236 233 232 233 234 235 236 237 238 238 238 238 236 235 235 235 236 238 240 242 243 244 244 243 241 239 238 238 239 240 240 240 241 243 245 245 247 248 250 252 254 257 259 262 264 265 266
265 266 267 268 269 269 268 267 265 265 265 267 269 269 269 268 268 267 267 267 267 269 271 272 271 268 265 263 261 261 262 262 262 260 256 253 250 247 244 239 235 232 231 231 233 234 235 236 236 236 235 234 233 233 233 234 235 237 239 240 240 240 240 239 237 237 237 239 239 240 240 242 245 247 247 248 248 250 251 253 255 256 259 261 262 262
262 264 265 266 267 268 268 267 265 265 265 267 268 268 267 266 266 266 266 267 268 270 271 271 269 265 262 260 260 261 261 261 260 259 257 255 253 252 249 247 243 239 236 234 234 235 235 236 236 236 235 233 232 231 230 231 232 233 234 235 236 237 237 237 236 236 236 238 239 240 240 242 246 248 250 250 251 252 253 253 254 255 258 260 260 259
262 263 264 266 267 267 268 268 268 267 267 267 268 267 265 264 264 265 266 267 268 270 271 270 267 263 259 258 259 260 261 260 258 257 255 255 255 254 254 253 252 250 247 244 242 241 240 240 239 239 238 237 235 233 231 230 230 231 232 232 233 234 234 234 234 234 235 236 238 239 240 242 244 248 250 251 253 255 255 255 256 257 259 260 260 258
263 264 265 266 267 267 268 268 269 269 269 268 267 266 264 263 263 264 266 267 268 269 270 269 265 261 258 257 258 259 260 259 256 254 254 254 254 255 255 256 256 257 256 255 253 251 249 246 245 244 243 243 241 239 236 234 232 232 232 232 232 233 233 233 233 233 234 235 236 238 239 241 243 245 248 250 252 255 256 257 258 260 261 261 260 257
264 265 265 266 266 267 267 267 267 268 268 268 267 265 264 263 263 264 265 266 267 267 267 266 262 258 256 255 256 257 257 256 254 252 252 252 253 254 255 256 257 258 259 259 260 259 257 255 252 250 249 248 247 245 243 240 237 235 234 234 233 234 234 234 234 234 234 234 235 237 238 240 241 243 245 247 250 253 256 257 259 260 261 261 259 256
264 264 264 264 265 265 265 265 265 265 265 266 265 265 263 263 263 264 264 265 265 264 264 262 259 255 253 253 253 254 254 253 251 250 250 250 251 252 254 255 256 257 258 259 260 261 261 260 258 256 254 253 252 250 248 245 241 239 238 237 236 236 235 235 236 236 235 236 236 236 237 239 240 242 244 246 248 251 254 257 258 260 260 261 259 256
261 261 262 262 262 262 263 263 264 264 264 265 265 265 264 264 264 264 263 263 262 260 259 257 255 253 251 251 251 251 251 250 249 248 248 248 249 250 252 253 254 255 256 257 258 258 259 260 259 259 258 257 255 253 251 248 245 243 242 241 240 239 238 237 237 238 238 238 237 237 237 238 239 241 243 245 247 250 253 255 258 259 259 260 259 256
259 259 259 260 260 260 261 261 262 263 263 264 265 265 266 265 264 263 262 261 259 257 254 253 251 250 249 249 249 249 248 248 248 247 247 247 248 249 249 251 251 252 253 253 254 254 255 255 256 256 257 256 255 254 252 250 248 247 245 244 243 242 240 240 240 240 240 240 240 239 239 239 240 241 243 245 247 249 252 255 256 257 257 258 257 256
259 259 258 258 259 259 259 260 260 261 262 263 264 264 264 264 262 259 257 257 255 253 250 249 248 247 247 247 247 247 247 247 247 247 247 247 247 247 247 247 248 248 248 248 248 249 249 250 250 251 252 252 252 251 250 249 248 248 247 247 245 244 243 242 242 242 242 242 242 241 241 241 242 243 244 246 248 250 252 254 255 256 255 255 255 255
258 258 258 258 258 258 258 259 259 259 260 260 261 262 262 261 261 259 257 255 253 250 246 245 244 244 244 244 244 245 246 246 247 247 247 247 247 246 246 245 244 244 244 244 244 244 244 245 245 246 247 248 248 248 248 248 247 247 248 247 247 246 245 245 245 245 245 244 244 244 243 244 245 246 248 249 251 252 253 254 254 254 253 252 251 252
257 257 257 258 258 258 257 257 256 257 257 258 259 259 259 259 260 260 259 258 255 251 247 244 242 242 242 242 242 243 244 246 247 248 248 247 246 246 245 245 244 243 243 242 242 242 242 243 243 244 245 245 246 246 246 246 246 247 248 249 250 250 250 249 248 248 247 246 245 245 245 246 248 249 251 252 253 253 253 253 252 251 250 249 249 249
255 255 255 255 256 256 255 254 253 253 254 255 255 256 256 256 257 258 258 258 256 254 250 247 244 243 242 241 241 242 243 245 247 248 248 247 246 246 245 245 245 244 244 244 243 243 243 244 244 245 245 245 245 245 245 246 246 246 247 250 253 255 255 254 251 249 248 247 246 246 246 247 249 250 251 252 252 252 251 250 248 247 246 247 247 247
254 253 252 252 252 252 252 251 249 248 248 249 251 251 252 253 254 255 255 255 255 253 251 248 246 245 243 242 241 241 242 243 245 246 247 247 246 246 246 246 246 246 246 245 245 245 245 245 246 246 246 245 245 245 245 246 246 246 247 249 252 254 254 252 250 248 247 246 245 245 245 246 247 248 249 250 250 250 249 247 245 244 244 246 247 247
255 253 250 249 248 247 247 247 246 244 243 243 244 245 246 248 250 251 252 252 252 252 250 249 247 246 245 243 242 241 240 240 241 242 244 245 245 245 245 246 247 247 247 247 247 247 246 247 247 247 247 246 246 245 245 246 247 248 248 248 249 249 248 246 245 244 244 243 243 242 242 243 243 244 246 247 247 247 246 244 243 243 244 246 248 249
254 252 250 248 245 244 243 242 241 239 238 237 237 238 240 242 245 247 248 250 251 251 251 251 250 249 248 246 244 242 240 239 239 240 241 242 243 244 245 246 246 247 247 247 248 248 248 248 248 248 248 247 246 246 246 248 249 249 248 247 245 243 241 241 240 240 241 240 240 240 240 240 240 241 243 244 245 245 244 244 243 244 245 247 248 250
253 252 251 249 247 245 243 241 238 236 235 234 233 234 235 237 240 242 244 247 249 250 252 253 254 253 251 249 247 245 243 241 240 240 241 242 243 244 245 246 247 247 248 248 248 249 249 249 249 249 248 247 247 247 247 248 249 249 247 244 241 238 237 236 237 238 238 239 239 240 240 240 240 241 242 243 244 245 245 245 245 245 246 247 248 250
253 251 250 249 248 247 245 243 241 238 236 234 233 232 232 233 235 238 240 243 246 248 250 252 254 254 252 249 248 246 244 242 241 241 242 242 243 244 246 247 248 248 248 248 249 249 249 250 250 249 248 248 247 247 248 248 248 247 244 241 238 236 234 234 235 237 238 239 240 241 242 242 242 242 242 243 244 245 246 246 246 247 247 247 248 249
257 254 252 250 249 247 246 245 243 241 239 236 234 233 232 232 233 234 237 239 242 245 247 248 249 250 249 247 246 244 243 242 241 241 242 243 244 245 246 247 248 249 250 249 249 249 249 249 249 248 247 247 247 247 247 246 245 243 241 239 236 234 233 234 236 237 239 240 241 243 244 245 245 245 244 245 245 246 246 246 247 247 247 248 248 248
263 260 257 254 251 249 247 246 245 245 243 241 238 235 233 232 231 231 233 235 237 240 242 242 242 242 243 241 239 238 238 238 239 240 242 243 244 245 246 248 249 250 250 250 250 249 248 247 246 245 245 245 246 245 245 244 243 241 239 237 235 234 233 234 236 238 239 240 241 243 245 246 246 246 246 246 246 246 246 246 246 246 246 246 245 244
267 265 263 260 257 254 251 248 247 247 247 246 243 240 237 235 232 231 230 231 232 233 234 234 235 235 235 232 230 230 232 233 235 238 240 242 244 245 246 247 249 250 250 250 249 247 246 244 243 242 242 242 242 242 242 242 241 240 239 237 235 233 233 233 235 238 240 241 243 245 246 246 246 246 245 245 244 244 244 244 244 243 243 242 241 239
271 270 268 266 264 261 258 255 252 250 249 248 247 244 242 239 236 233 231 229 229 230 230 231 230 230 228 225 223 224 227 230 234 236 238 240 241 243 244 245 247 248 249 248 247 245 243 241 240 239 238 238 238 239 240 241 241 240 238 236 235 233 233 234 237 240 243 245 246 248 248 247 246 244 244 243 242 242 241 240 239 239 237 236 235 234
276 274 273 271 269 267 265 262 259 256 254 252 250 248 246 243 241 237 234 231 230 230 229 228 227 225 223 221 221 222 226 229 232 234 235 237 239 240 241 242 243 244 245 244 243 241 240 238 237 236 235 235 235 236 238 239 240 239 237 235 234 233 235 238 242 245 247 248 249 249 248 246 244 242 242 241 240 239 238 236 235 233 232 231 231 231
280 278 276 274 272 270 269 267 265 263 260 258 255 253 251 248 245 241 238 235 233 231 229 229 227 225 224 224 224 226 227 229 230 230 232 234 236 238 239 240 240 240 240 239 238 237 237 236 235 234 233 232 233 234 236 237 237 236 234 233 232 234 237 242 245 247 247 247 247 246 244 241 240 239 239 239 238 236 234 232 230 229 229 229 230 231
284 282 280 278 276 274 272 271 269 268 266 264 262 259 256 254 250 246 242 239 236 233 232 231 229 229 229 229 228 228 227 226 226 226 228 229 231 233 235 236 237 237 236 235 235 235 235 235 234 233 231 230 230 232 234 235 235 234 233 232 233 235 240 244 245 245 244 243 241 239 237 236 236 237 237 237 235 232 230 228 227 227 227 229 230 231
285 285 284 282 280 278 276 274 273 271 270 269 267 265 262 259 256 253 250 245 241 238 236 234 233 232 231 230 229 227 225 222 221 222 223 224 225 227 229 231 232 232 232 233 233 234 234 234 234 233 231 229 229 229 231 233 234 234 233 233 234 237 241 243 244 242 240 238 236 234 234 234 235 235 235 233 230 227 226 225 226 227 228 229 230 230
284 284 285 285 284 283 281 278 276 274 273 272 270 269 267 264 262 259 256 252 248 244 242 239 237 234 231 229 228 226 223 219 218 219 220 220 221 221 223 224 225 227 228 230 232 234 235 235 235 234 232 230 228 228 230 232 234 235 235 235 236 238 240 241 241 239 237 235 233 232 232 233 234 233 231 228 226 224 224 225 226 227 228 228 228 228
283 283 284 285 285 285 284 282 280 278 276 274 273 272 270 269 267 263 260 256 253 251 248 244 240 236 232 229 227 226 224 222 220 220 219 218 218 218 219 220 221 223 225 228 230 233 234 235 236 235 233 231 230 229 229 231 233 234 236 236 237 238 239 239 239 238 236 233 232 231 232 233 232 230 227 225 224 224 225 226 226 226 226 225 225 225
284 283 283 284 284 285 285 285 283 282 280 278 276 275 273 272 270 268 264 261 258 255 253 249 245 240 235 231 229 228 228 229 229 227 224 221 219 218 217 218 219 222 224 226 229 231 233 235 236 236 235 234 232 231 231 231 232 233 234 235 235 235 236 237 238 238 236 234 232 232 232 231 229 227 225 225 225 226 226 226 225 224 223 223 223 223
285 284 283 282 282 282 283 284 284 283 282 281 279 278 276 275 273 272 270 267 262 259 256 253 250 245 240 236 234 234 235 236 237 236 233 230 225 220 218 218 219 221 223 226 228 231 233 235 236 237 237 236 235 234 233 233 233 233 232 232 231 232 233 235 237 238 236 234 232 231 231 230 228 226 226 227 227 227 226 224 223 222 221 221 221 222
287 284 282 280 280 280 280 281 281 281 281 281 280 279 278 277 275 274 273 271 268 263 259 256 253 250 245 242 240 239 239 239 240 241 241 239 233 227 223 221 221 222 223 226 228 231 234 236 237 238 238 238 238 237 236 235 234 233 232 230 228 228 230 233 236 236 234 232 230 230 230 229 228 227 227 227 227 226 224 223 221 220 220 220 220 221
287 284 281 279 278 278 277 277 278 278 278 278 278 278 278 277 276 275 274 273 271 269 265 260 256 253 250 248 245 244 243 243 243 244 245 244 240 234 229 226 225 225 226 227 230 233 235 238 239 240 241 241 240 239 238 237 236 234 232 230 228 228 230 232 234 233 231 229 228 228 229 228 228 227 227 226 226 224 223 221 220 219 219 219 220 221
286 281 278 277 276 275 275 275 275 275 275 276 276 276 276 276 275 275 274 274 273 271 269 266 261 257 255 253 251 250 248 248 247 247 248 248 245 240 234 231 229 228 228 229 231 234 237 239 241 241 242 242 241 240 239 237 236 234 232 231 230 230 232 233 233 232 230 228 227 228 228 227 227 226 225 224 224 223 222 220 219 218 218 219 220 221
283 278 274 272 272 271 272 272 272 272 273 273 274 275 275 275 274 274 273 273 273 272 271 270 267 263 259 257 255 255 254 253 252 251 251 250 249 245 240 236 233 231 229 228 229 232 235 238 240 241 241 241 240 239 238 237 236 234 233 232 232 233 234 234 233 231 229 228 227 227 227 227 226 224 223 223 222 222 221 220 219 218 218 219 220 222
282 275 271 270 269 269 269 270 270 270 271 271 272 273 273 274 274 274 273 273 272 272 272 271 270 268 265 261 258 257 256 255 255 254 253 252 251 249 246 242 238 235 233 230 228 228 230 233 236 239 239 239 238 237 237 236 235 234 233 233 233 234 235 236 234 232 230 228 227 227 227 227 226 225 223 222 221 221 221 220 219 218 218 219 220 222
283 276 271 269 268 269 269 269 270 270 270 270 271 271 272 272 273 273 274 273 273 272 272 272 272 271 270 267 263 259 257 256 257 257 256 254 253 251 250 247 244 241 238 236 232 229 227 228 230 233 234 235 235 234 234 234 234 233 233 233 234 235 236 236 235 233 231 229 228 227 227 227 227 226 223 222 221 221 220 219 218 218 218 219 220 222
286 279 274 270 268 268 269 270 270 271 271 271 271 271 271 271 271 272 273 274 274 273 273 272 272 272 272 271 269 265 260 258 257 256 256 255 254 252 251 250 248 246 243 241 237 233 230 228 227 228 229 230 231 232 231 232 231 232 232 233 234 235 236 236 235 233 232 230 228 228 227 228 228 227 225 223 221 220 220 219 218 217 217 219 220 222
290 283 276 272 269 269 269 270 272 273 273 273 272 272 271 270 270 271 272 273 274 274 274 273 273 272 272 273 272 270 266 261 257 254 254 254 253 252 251 250 250 249 247 245 242 239 235 231 229 227 227 227 227 228 229 229 229 229 230 232 233 234 235 235 235 234 232 231 230 229 228 228 228 228 227 225 223 221 220 219 218 217 217 218 219 220
292 286 280 275 272 271 272 273 275 275 275 274 273 273 272 271 271 271 271 272 273 274 275 275 274 274 273 273 273 272 271 267 261 256 253 251 251 251 250 250 249 249 249 248 247 244 241 237 233 230 228 227 226 226 226 226 226 227 228 228 230 232 234 234 234 233 233 232 231 230 229 229 229 229 229 228 226 223 221 219 218 217 217 217 218 219
293 288 283 278 275 274 274 276 277 278 277 277 277 276 275 274 273 272 272 272 272 273 275 276 276 276 276 275 275 274 273 271 268 263 257 253 250 249 249 249 248 248 249 249 249 248 245 243 239 235 232 230 229 227 225 224 224 224 225 225 226 228 230 231 232 232 232 232 232 231 230 230 230 230 230 230 228 226 223 221 219 218 217 217 218 218
294 290 285 280 277 276 276 277 278 279 280 281 282 282 281 279 278 276 273 271 271 271 273 275 276 277 277 278 278 277 276 275 272 269 264 259 254 251 249 248 247 247 248 248 249 249 248 246 244 241 238 235 233 231 228 225 223 223 222 222 223 224 226 228 229 230 231 232 232 232 231 231 230 230 231 231 231 229 225 222 220 218 218 218 218 219
295 291 287 283 279 277 277 277 279 281 283 284 285 286 286 285 283 281 279 276 275 274 274 274 274 274 274 275 276 277 277 277 275 273 269 265 260 256 252 249 248 247 247 247 248 249 249 248 247 245 242 240 238 235 232 228 224 222 221 221 220 220 220 222 224 227 228 229 230 231 231 231 231 230 231 231 231 230 227 224 220 218 218 218 219 219
297 294 290 286 282 279 278 279 281 283 284 286 287 288 289 288 287 286 285 283 282 281 280 278 276 275 274 273 271 271 272 274 276 276 274 270 266 261 257 253 250 248 247 247 247 248 248 249 249 248 246 244 242 239 236 232 228 224 222 220 219 219 218 218 219 221 223 226 228 229 230 230 230 229 229 230 230 230 228 225 221 219 217 217 218 219
298 296 293 289 286 283 282 281 282 283 284 285 287 289 289 289 288 288 288 288 287 287 286 284 282 279 277 274 272 270 268 268 271 273 274 273 271 267 262 258 254 251 249 247 246 246 247 248 248 248 248 247 245 243 240 236 232 228 225 222 220 219 218 217 216 216 218 220 223 225 227 227 228 227 227 228 228 228 227 225 223 219 217 217 217 219
298 296 295 292 290 287 285 284 283 283 284 286 288 289 289 289 288 288 288 289 289 289 289 288 286 284 281 279 277 275 270 266 264 265 268 271 272 270 266 262 258 254 251 248 246 245 244 245 246 247 247 247 247 245 243 240 237 234 230 226 223 221 218 216 215 214 215 215 217 219 222 223 224 224 224 224 224 225 225 225 223 221 218 217 217 217
295 294 293 292 290 288 287 285 284 284 285 286 288 289 289 289 289 289 289 289 289 289 289 289 288 286 285 285 284 281 276 270 266 263 263 265 267 268 267 264 261 257 253 250 248 246 244 243 244 245 246 247 247 247 245 243 241 239 236 232 229 226 223 219 216 214 214 214 214 214 216 218 219 220 220 220 220 221 222 223 223 222 220 218 217 217
293 292 291 290 289 288 287 286 285 285 285 285 287 288 289 289 290 290 290 289 289 289 289 288 288 287 287 288 287 285 281 278 274 269 265 262 262 264 265 265 263 261 257 254 251 249 247 245 244 244 245 245 246 247 246 245 244 243 240 238 235 232 229 224 219 217 216 215 214 214 213 214 214 215 216 217 217 217 218 220 221 222 221 219 218 218
293 292 290 289 288 287 287 286 285 285 285 285 285 286 288 289 289 290 290 290 290 289 289 289 289 288 289 288 287 286 284 282 279 276 272 268 264 263 263 264 264 264 262 259 256 253 250 248 247 246 245 245 245 245 246 246 246 245 244 242 240 237 234 230 226 222 220 218 217 216 215 214 213 213 213 213 214 215 216 217 219 220 221 220 219 218
294 292 291 290 289 288 287 286 286 285 285 285 285 285 286 287 288 289 289 290 290 289 289 290 290 290 289 289 288 287 285 283 281 279 276 274 271 268 265 264 264 265 265 263 261 258 255 252 250 249 248 247 246 246 246 246 246 246 246 245 243 241 239 236 233 229 226 224 221 220 219 218 216 215 213 213 212 212 213 214 216 218 219 220 220 219
295 293 291 290 289 288 287 286 286 285 285 285 285 285 285 286 286 287 288 288 289 289 289 290 290 291 290 290 290 288 287 284 282 280 278 277 275 272 269 266 265 265 265 265 263 261 259 256 254 251 250 248 248 247 246 246 246 247 248 247 246 244 243 241 239 236 233 230 227 224 223 222 221 219 217 215 213 212 212 212 214 215 217 218 219 219
Height
3020 3021 3022 3022 3022 3021 3021 3022 3023 3023 3023 3024 3026 3027 3028 3029 3029 3030 3031 3031 3031 3031 3031 3031 3032 3032 3033 3034 3035 3036 3036 3037 3037 3037 3038 3039 3041 3042 3044 3045 3047 3049 3050 3052 3053 3054 3054 3054 3055 3056 3057 3058 3059 3060 3062 3063 3064 3064 3065 3066 3067 3068 3069 3069 3071 3072 3073 3074 3074 3075 3075 3076 3076 3076 3077 3077 3078 3079 3079 3080 3080 3081 3082 3082 3083 3083
3018 3018 3019 3019 3019 3018 3017 3019 3019 3020 3020 3021 3022 3024 3024 3025 3025 3026 3026 3027 3027 3027 3027 3028 3028 3028 3029 3029 3031 3032 3032 3033 3033 3034 3034 3036 3037 3038 3040 3042 3043 3045 3046 3047 3048 3049 3049 3049 3050 3051 3053 3054 3055 3056 3058 3059 3059 3060 3062 3063 3063 3064 3065 3066 3067 3068 3069 3070 3070 3071 3072 3072 3072 3073 3073 3074 3075 3076 3076 3077 3078 3078 3079 3080 3080 3081
3015 3015 3016 3016 3016 3015 3014 3015 3016 3017 3017 3018 3019 3020 3021 3020 3021 3021 3022 3023 3023 3024 3024 3024 3024 3024 3025 3025 3027 3028 3028 3029 3029 3030 3031 3032 3033 3035 3036 3038 3039 3040 3042 3043 3043 3044 3044 3044 3045 3046 3047 3049 3050 3052 3053 3054 3055 3056 3057 3059 3059 3060 3061 3061 3062 3064 3065 3066 3067 3067 3068 3068 3069 3069 3069 3070 3071 3072 3073 3074 3074 3075 3076 3077 3078 3078
3011 3011 3012 3012 3013 3012 3011 3012 3012 3013 3014 3014 3015 3016 3017 3016 3016 3017 3018 3019 3019 3019 3019 3020 3020 3020 3021 3021 3022 3023 3024 3025 3026 3026 3027 3029 3030 3031 3032 3034 3035 3036 3037 3038 3038 3039 3039 3040 3040 3041 3042 3044 3045 3046 3047 3049 3050 3051 3053 3054 3055 3055 3056 3057 3058 3059 3061 3062 3063 3064 3064 3064 3065 3065 3066 3067 3068 3069 3069 3070 3071 3072 3074 3074 3075 3076
3007 3007 3007 3008 3008 3008 3008 3009 3009 3009 3009 3010 3010 3011 3012 3012 3013 3013 3014 3014 3014 3014 3015 3015 3016 3016 3017 3017 3018 3019 3020 3021 3022 3023 3024 3025 3026 3027 3028 3029 3030 3031 3032 3033 3034 3034 3035 3035 3036 3037 3038 3039 3039 3041 3042 3043 3045 3046 3047 3049 3049 3050 3051 3052 3054 3055 3056 3058 3059 3060 3061 3061 3062 3062 3063 3064 3066 3066 3067 3067 3068 3069 3070 3071 3072 3073
3003 3003 3003 3004 3004 3004 3004 3005 3005 3005 3005 3005 3005 3006 3007 3008 3008 3009 3009 3010 3010 3010 3010 3011 3012 3012 3012 3013 3014 3015 3016 3017 3018 3019 3020 3021 3023 3024 3024 3025 3026 3027 3028 3028 3029 3030 3031 3031 3032 3033 3034 3034 3035 3036 3037 3039 3040 3041 3042 3044 3045 3046 3047 3048 3049 3050 3052 3053 3055 3056 3057 3058 3058 3059 3060 3061 3063 3063 3064 3065 3066 3066 3067 3068 3069 3070
2999 2999 2999 3000 3000 3000 3000 3002 3003 3003 3001 3000 3000 3001 3002 3003 3004 3004 3004 3005 3006 3006 3006 3007 3007 3008 3008 3009 3010 3011 3012 3013 3014 3016 3017 3018 3019 3019 3020 3021 3022 3023 3024 3024 3025 3025 3026 3028 3029 3029 3030 3031 3031 3032 3033 3034 3035 3037 3038 3039 3040 3041 3043 3044 3045 3046 3047 3049 3050 3051 3053 3054 3054 3055 3057 3058 3059 3060 3061 3062 3063 3063 3064 3065 3066 3067
2995 2995 2995 2996 2996 2996 2996 2997 2998 2998 2998 2997 2996 2996 2997 2998 2999 2999 3000 3001 3002 3002 3002 3003 3003 3004 3004 3005 3006 3007 3008 3009 3010 3011 3013 3014 3014 3015 3016 3017 3018 3019 3019 3020 3021 3021 3022 3023 3024 3025 3026 3027 3028 3029 3029 3030 3032 3033 3034 3035 3036 3037 3039 3039 3040 3042 3043 3044 3045 3047 3048 3049 3051 3052 3053 3054 3055 3056 3057 3058 3059 3060 3061 3062 3063 3064
2991 2991 2992 2992 2992 2992 2992 2992 2992 2992 2993 2992 2992 2992 2993 2994 2994 2995 2996 2996 2997 2997 2998 2998 2999 2999 3000 3001 3003 3004 3004 3005 3006 3007 3009 3009 3010 3011 3012 3013 3014 3014 3015 3016 3017 3017 3018 3019 3019 3020 3021 3022 3023 3024 3025 3026 3028 3029 3030 3031 3032 3033 3034 3035 3036 3037 3039 3039 3041 3042 3044 3045 3046 3048 3049 3050 3051 3052 3053 3054 3056 3057 3058 3059 3060 3061
2987 2987 2987 2987 2987 2987 2988 2988 2987 2988 2988 2988 2988 2989 2990 2991 2991 2991 2991 2991 2991 2992 2994 2994 2994 2995 2996 2998 2999 3000 3000 3001 3002 3004 3004 3005 3006 3008 3009 3009 3010 3010 3011 3012 3013 3014 3014 3014 3015 3016 3017 3018 3019 3020 3021 3022 3023 3024 3025 3027 3028 3029 3030 3031 3032 3033 3034 3035 3036 3038 3039 3041 3042 3043 3045 3046 3047 3048 3049 3050 3052 3054 3055 3056 3057 3058
2982 2982 2983 2983 2982 2982 2983 2983 2983 2983 2984 2984 2985 2986 2988 2989 2988 2986 2986 2987 2987 2988 2989 2989 2989 2991 2992 2993 2995 2996 2997 2998 2998 2999 3000 3001 3002 3004 3004 3005 3006 3006 3007 3008 3009 3009 3010 3010 3011 3012 3013 3014 3014 3015 3016 3017 3019 3020 3021 3022 3024 3025 3026 3027 3028 3029 3030 3031 3032 3034 3035 3036 3038 3039 3040 3042 3043 3044 3046 3047 3049 3051 3052 3053 3054 3055
2978 2978 2978 2978 2978 2977 2978 2978 2977 2977 2979 2980 2980 2981 2981 2981 2980 2979 2979 2979 2981 2983 2984 2984 2985 2986 2987 2989 2990 2992 2993 2994 2994 2995 2996 2997 2998 2999 2999 3000 3001 3001 3002 3003 3004 3004 3005 3005 3006 3008 3009 3009 3010 3011 3012 3013 3014 3015 3016 3018 3019 3020 3022 3023 3024 3025 3026 3027 3028 3029 3030 3032 3034 3035 3036 3038 3039 3040 3042 3044 3045 3047 3049 3050 3051 3052
2973 2973 2973 2973 2973 2973 2973 2972 2972 2972 2973 2975 2976 2976 2976 2975 2975 2975 2975 2975 2976 2977 2977 2978 2979 2981 2982 2984 2986 2988 2989 2989 2990 2990 2991 2992 2993 2994 2994 2995 2995 2996 2997 2998 2998 2999 2999 3001 3002 3003 3004 3005 3006 3007 3008 3009 3009 3011 3012 3014 3015 3016 3017 3019 3019 3021 3022 3023 3024 3025 3026 3028 3029 3030 3032 3034 3035 3037 3038 3039 3041 3043 3045 3046 3048 3049
2968 2968 2968 2968 2968 2968 2967 2967 2967 2967 2968 2970 2970 2971 2970 2970 2970 2971 2971 2971 2971 2972 2973 2974 2974 2976 2978 2980 2983 2984 2985 2985 2986 2986 2986 2987 2988 2989 2989 2990 2990 2991 2992 2993 2993 2994 2995 2996 2997 2998 2999 3000 3001 3002 3003 3004 3005 3006 3008 3009 3010 3012 3013 3014 3015 3016 3017 3018 3019 3020 3022 3023 3025 3027 3028 3030 3031 3033 3034 3035 3037 3039 3041 3043 3044 3046
2964 2964 2963 2963 2962 2962 2962 2961 2961 2962 2963 2964 2964 2964 2964 2964 2965 2966 2966 2967 2967 2968 2969 2970 2971 2973 2975 2978 2980 2982 2984 2984 2983 2982 2981 2981 2982 2984 2985 2985 2985 2986 2987 2987 2988 2989 2990 2992 2992 2993 2994 2996 2997 2998 2999 3000 3001 3002 3004 3005 3006 3008 3009 3010 3011 3012 3012 3013 3014 3016 3018 3019 3021 3023 3024 3026 3027 3029 3030 3032 3034 3036 3038 3039 3041 3042
2959 2959 2958 2957 2957 2957 2957 2956 2956 2957 2957 2958 2958 2959 2959 2959 2959 2960 2961 2962 2963 2964 2965 2966 2967 2969 2972 2975 2977 2977 2976 2975 2975 2976 2976 2976 2977 2978 2980 2980 2980 2980 2981 2982 2983 2984 2985 2987 2988 2989 2990 2991 2992 2994 2995 2996 2997 2999 3000 3001 3002 3004 3005 3006 3007 3007 3008 3009 3011 3012 3014 3015 3017 3019 3020 3022 3024 3025 3027 3029 3031 3032 3034 3035 3037 3039
2955 2955 2954 2953 2953 2952 2952 2951 2951 2951 2951 2951 2952 2952 2953 2954 2954 2954 2956 2956 2957 2959 2960 2961 2963 2965 2966 2967 2967 2967 2967 2968 2967 2967 2968 2969 2972 2974 2975 2975 2975 2975 2976 2977 2978 2979 2981 2982 2983 2984 2985 2986 2988 2989 2991 2992 2993 2994 2996 2997 2998 2999 3001 3002 3003 3004 3005 3006 3007 3009 3010 3012 3013 3015 3017 3019 3021 3022 3024 3025 3027 3028 3030 3031 3033 3034
2951 2951 2950 2950 2949 2949 2948 2948 2947 2946 2945 2946 2946 2946 2946 2947 2948 2949 2950 2951 2952 2953 2954 2955 2957 2959 2961 2962 2962 2962 2963 2964 2963 2963 2964 2965 2967 2969 2972 2972 2971 2971 2972 2973 2973 2974 2976 2977 2979 2980 2981 2983 2984 2985 2987 2988 2989 2991 2992 2993 2994 2995 2996 2998 2999 3000 3001 3003 3004 3005 3007 3008 3009 3011 3014 3016 3017 3018 3019 3021 3022 3024 3025 3027 3029 3030
2946 2946 2946 2946 2945 2945 2945 2945 2944 2943 2942 2942 2941 2941 2941 2942 2942 2944 2945 2946 2947 2948 2949 2949 2951 2952 2954 2956 2957 2957 2958 2959 2959 2959 2961 2962 2963 2965 2967 2968 2968 2968 2969 2969 2969 2971 2972 2973 2974 2976 2978 2979 2981 2982 2984 2984 2986 2987 2988 2989 2990 2991 2992 2994 2995 2996 2998 2999 3000 3002 3003 3004 3006 3008 3010 3012 3013 3014 3015 3017 3018 3020 3021 3023 3025 3026
2940 2941 2941 2941 2941 2941 2941 2941 2940 2939 2939 2938 2938 2938 2938 2937 2938 2939 2939 2940 2941 2942 2943 2944 2945 2946 2948 2950 2952 2953 2953 2953 2954 2955 2956 2958 2959 2961 2963 2964 2964 2964 2965 2965 2966 2968 2969 2970 2971 2973 2974 2976 2977 2979 2980 2981 2982 2983 2984 2985 2986 2988 2989 2990 2991 2993 2994 2995 2997 2998 2999 3001 3002 3004 3006 3007 3009 3010 3011 3013 3014 3016 3017 3019 3021 3022
2936 2936 2935 2935 2936 2936 2936 2936 2936 2936 2935 2934 2934 2934 2934 2934 2934 2934 2934 2935 2936 2937 2937 2939 2940 2941 2942 2945 2947 2947 2946 2948 2949 2950 2951 2953 2955 2957 2958 2959 2960 2961 2961 2962 2964 2965 2966 2967 2968 2969 2970 2972 2974 2975 2976 2977 2978 2979 2980 2981 2983 2984 2985 2986 2988 2989 2990 2992 2993 2994 2996 2997 2999 3000 3002 3003 3005 3006 3008 3009 3010 3012 3013 3015 3017 3019
2931 2931 2931 2931 2931 2931 2930 2931 2932 2932 2931 2931 2930 2930 2929 2930 2930 2930 2930 2931 2931 2932 2932 2934 2934 2935 2937 2940 2941 2941 2939 2942 2944 2944 2946 2948 2950 2952 2954 2955 2956 2957 2958 2959 2960 2962 2962 2963 2964 2965 2967 2968 2970 2971 2972 2973 2974 2975 2976 2978 2979 2980 2982 2983 2984 2986 2987 2988 2989 2991 2992 2994 2995 2996 2998 2999 3001 3002 3004 3005 3006 3008 3009 3011 3013 3014
2925 2925 2925 2926 2926 2925 2925 2925 2926 2926 2927 2927 2926 2926 2926 2927 2927 2927 2927 2928 2928 2928 2929 2929 2930 2932 2933 2935 2935 2935 2935 2936 2938 2939 2942 2944 2945 2947 2949 2951 2952 2953 2954 2955 2957 2958 2959 2959 2960 2962 2963 2964 2966 2967 2968 2969 2970 2971 2973 2974 2976 2977 2978 2979 2981 2983 2984 2985 2986 2987 2989 2990 2991 2993 2994 2995 2997 2998 2999 3001 3002 3004 3005 3007 3009 3010
2920 2920 2920 2920 2920 2920 2920 2920 2920 2921 2921 2922 2922 2922 2923 2924 2924 2924 2924 2924 2925 2925 2926 2927 2928 2929 2930 2931 2932 2932 2932 2932 2934 2936 2938 2938 2939 2941 2944 2946 2948 2949 2950 2951 2953 2954 2954 2955 2956 2958 2959 2961 2962 2963 2964 2965 2967 2968 2969 2971 2973 2974 2975 2977 2978 2979 2981 2982 2983 2984 2985 2987 2988 2989 2990 2992 2993 2994 2995 2997 2999 3000 3002 3004 3005 3007
2916 2916 2915 2915 2915 2915 2915 2916 2916 2916 2916 2916 2917 2918 2918 2919 2920 2920 2921 2921 2922 2922 2923 2925 2926 2926 2927 2928 2928 2929 2929 2929 2930 2931 2932 2933 2934 2937 2939 2941 2943 2944 2945 2947 2948 2949 2950 2951 2952 2954 2956 2957 2958 2960 2961 2963 2964 2965 2967 2968 2969 2971 2972 2974 2975 2976 2977 2978 2979 2980 2981 2983 2984 2985 2987 2988 2989 2990 2992 2993 2995 2997 2999 3000 3002 3004
2912 2911 2911 2911 2911 2911 2911 2911 2911 2912 2912 2912 2912 2913 2914 2914 2915 2916 2917 2917 2918 2919 2920 2922 2922 2923 2924 2925 2926 2926 2926 2926 2926 2927 2928 2929 2931 2934 2936 2937 2939 2940 2940 2942 2944 2945 2946 2947 2948 2950 2952 2953 2954 2956 2957 2959 2960 2962 2963 2964 2966 2967 2968 2969 2970 2971 2972 2973 2974 2975 2977 2978 2980 2981 2982 2984 2985 2987 2988 2990 2992 2994 2995 2997 2999 3001
2908 2907 2906 2906 2906 2907 2907 2907 2907 2907 2907 2908 2908 2909 2909 2910 2911 2912 2912 2912 2913 2915 2917 2918 2918 2919 2921 2922 2923 2923 2923 2923 2923 2923 2924 2925 2927 2929 2931 2933 2934 2936 2937 2938 2939 2940 2941 2943 2944 2946 2947 2949 2950 2951 2953 2954 2956 2958 2959 2960 2961 2963 2964 2965 2966 2967 2968 2969 2970 2971 2973 2974 2976 2977 2979 2980 2982 2983 2985 2987 2989 2991 2993 2994 2996 2998
2905 2904 2903 2903 2902 2902 2902 2902 2902 2903 2903 2903 2903 2903 2904 2905 2907 2907 2907 2907 2909 2911 2913 2913 2914 2915 2917 2918 2918 2919 2920 2920 2920 2920 2920 2922 2923 2925 2926 2928 2930 2931 2932 2934 2934 2936 2937 2938 2940 2941 2943 2944 2946 2947 2948 2950 2952 2953 2954 2956 2957 2959 2960 2961 2962 2963 2964 2965 2966 2968 2969 2971 2972 2974 2975 2977 2979 2980 2982 2984 2986 2988 2989 2991 2993 2994
2903 2902 2901 2900 2899 2899 2899 2898 2898 2898 2898 2898 2898 2898 2899 2900 2902 2903 2902 2903 2905 2907 2907 2907 2909 2912 2913 2913 2914 2915 2917 2917 2917 2916 2917 2918 2919 2920 2921 2924 2925 2927 2928 2929 2930 2932 2933 2934 2935 2937 2939 2940 2941 2943 2944 2945 2947 2949 2950 2952 2953 2955 2956 2958 2958 2959 2960 2962 2963 2964 2966 2968 2969 2970 2972 2974 2975 2977 2979 2981 2983 2984 2986 2988 2989 2990
2901 2900 2899 2898 2897 2896 2895 2895 2895 2894 2894 2894 2894 2894 2894 2895 2896 2897 2897 2899 2901 2902 2901 2902 2905 2907 2908 2909 2910 2912 2913 2913 2913 2913 2913 2914 2914 2915 2916 2919 2920 2921 2923 2924 2926 2927 2929 2930 2932 2934 2935 2936 2938 2939 2940 2941 2943 2944 2946 2948 2949 2951 2953 2954 2955 2956 2957 2958 2959 2961 2963 2964 2966 2967 2969 2971 2972 2974 2976 2978 2979 2981 2982 2984 2986 2987
2899 2898 2897 2896 2895 2894 2893 2893 2892 2891 2891 2891 2891 2890 2890 2890 2891 2891 2892 2894 2895 2896 2897 2898 2900 2902 2903 2904 2906 2907 2907 2908 2908 2909 2909 2909 2909 2910 2913 2914 2915 2915 2917 2919 2921 2922 2924 2925 2928 2929 2931 2933 2934 2935 2937 2938 2939 2940 2942 2944 2945 2947 2949 2950 2951 2952 2954 2955 2956 2958 2959 2961 2962 2964 2966 2968 2969 2971 2972 2974 2976 2977 2979 2981 2982 2984
2896 2895 2894 2894 2893 2892 2891 2891 2890 2889 2889 2888 2888 2887 2887 2887 2887 2887 2887 2888 2889 2891 2893 2894 2895 2896 2898 2899 2900 2901 2901 2903 2904 2905 2906 2906 2906 2907 2910 2911 2912 2912 2913 2914 2916 2917 2919 2921 2923 2925 2927 2929 2930 2932 2933 2934 2935 2937 2938 2939 2941 2943 2944 2946 2947 2949 2950 2951 2953 2954 2956 2957 2959 2961 2962 2964 2966 2967 2969 2971 2972 2974 2976 2977 2979 2981
2894 2893 2892 2891 2890 2890 2889 2888 2888 2887 2887 2886 2885 2885 2884 2884 2884 2884 2884 2884 2884 2885 2887 2889 2890 2891 2892 2893 2894 2895 2897 2899 2900 2901 2901 2901 2902 2904 2906 2908 2909 2909 2909 2910 2911 2913 2915 2917 2919 2921 2923 2925 2926 2928 2929 2931 2932 2934 2935 2936 2937 2939 2940 2942 2944 2945 2946 2948 2949 2950 2952 2954 2955 2957 2959 2960 2962 2964 2965 2967 2969 2971 2972 2974 2976 2978
2891 2890 2889 2889 2888 2888 2887 2886 2886 2885 2884 2884 2883 2883 2882 2882 2881 2881 2881 2880 2880 2881 2882 2884 2885 2887 2888 2888 2889 2890 2891 2893 2894 2895 2896 2897 2898 2899 2902 2904 2905 2906 2907 2907 2908 2909 2911 2913 2915 2917 2919 2921 2923 2924 2926 2928 2929 2930 2932 2933 2934 2935 2937 2938 2940 2942 2943 2944 2945 2947 2949 2950 2952 2954 2955 2957 2959 2960 2962 2964 2966 2967 2969 2971 2973 2975
2889 2888 2887 2887 2886 2885 2884 2884 2884 2883 2883 2882 2882 2881 2880 2880 2879 2879 2878 2878 2878 2878 2878 2879 2880 2882 2884 2884 2885 2885 2886 2888 2889 2889 2891 2892 2893 2894 2897 2900 2901 2902 2903 2904 2904 2905 2907 2908 2910 2913 2914 2916 2919 2921 2922 2924 2925 2927 2928 2929 2931 2932 2933 2935 2937 2938 2940 2941 2942 2944 2945 2947 2949 2950 2952 2954 2955 2957 2959 2961 2963 2964 2966 2968 2970 2972
2887 2886 2885 2885 2884 2884 2883 2882 2882 2881 2881 2880 2880 2879 2879 2878 2877 2877 2876 2876 2876 2875 2875 2876 2876 2877 2879 2880 2881 2882 2882 2883 2883 2884 2886 2887 2888 2890 2893 2894 2896 2898 2899 2900 2901 2902 2903 2904 2906 2908 2910 2912 2914 2917 2919 2920 2922 2923 2924 2926 2927 2929 2930 2932 2933 2935 2936 2938 2939 2940 2942 2944 2945 2947 2949 2951 2953 2954 2956 2958 2960 2962 2964 2965 2967 2969
2885 2884 2884 2883 2882 2882 2881 2880 2880 2880 2879 2879 2878 2878 2877 2877 2876 2875 2875 2874 2874 2874 2874 2874 2874 2874 2874 2875 2877 2878 2879 2879 2880 2880 2881 2881 2884 2886 2888 2889 2891 2893 2895 2895 2896 2898 2899 2900 2902 2904 2906 2908 2910 2913 2915 2917 2918 2919 2921 2922 2924 2925 2927 2928 2930 2931 2933 2934 2935 2937 2939 2940 2942 2944 2946 2948 2950 2952 2954 2955 2957 2959 2961 2963 2964 2966
2883 2883 2882 2881 2881 2880 2879 2879 2879 2878 2878 2877 2877 2876 2876 2875 2875 2874 2874 2873 2873 2872 2872 2872 2872 2872 2872 2872 2873 2874 2875 2876 2877 2877 2877 2877 2879 2881 2883 2884 2886 2889 2890 2891 2892 2894 2895 2896 2898 2899 2902 2904 2907 2909 2911 2913 2914 2915 2917 2918 2919 2921 2923 2925 2927 2928 2929 2931 2933 2934 2936 2937 2939 2941 2943 2944 2946 2948 2950 2952 2954 2956 2958 2960 2962 2964
2881 2881 2880 2879 2879 2878 2878 2877 2877 2877 2876 2876 2875 2875 2874 2874 2874 2873 2873 2872 2871 2871 2870 2870 2870 2870 2870 2870 2870 2870 2871 2873 2874 2874 2874 2875 2876 2877 2878 2880 2882 2884 2885 2886 2888 2889 2891 2893 2894 2896 2898 2900 2903 2905 2907 2909 2910 2912 2913 2914 2916 2918 2919 2921 2923 2925 2926 2928 2929 2931 2933 2934 2936 2938 2939 2941 2943 2944 2946 2948 2950 2952 2955 2957 2959 2961
2879 2879 2879 2878 2877 2877 2876 2876 2875 2875 2875 2874 2874 2873 2873 2872 2872 2872 2871 2871 2870 2869 2869 2869 2869 2869 2869 2868 2868 2868 2868 2869 2870 2871 2872 2872 2873 2873 2874 2876 2877 2879 2880 2882 2883 2885 2887 2889 2890 2892 2894 2897 2899 2901 2903 2904 2906 2908 2909 2911 2912 2914 2915 2917 2919 2921 2923 2924 2926 2928 2929 2931 2933 2934 2936 2938 2939 2941 2943 2945 2947 2949 2951 2953 2955 2957
2878 2878 2877 2876 2876 2875 2875 2874 2874 2874 2873 2873 2872 2872 2871 2871 2870 2870 2870 2869 2869 2869 2868 2867 2867 2867 2867 2867 2867 2866 2866 2866 2867 2868 2869 2869 2870 2870 2871 2872 2873 2874 2876 2877 2878 2880 2882 2884 2886 2889 2890 2893 2894 2896 2899 2900 2902 2904 2906 2907 2909 2910 2912 2914 2915 2917 2919 2921 2923 2925 2926 2928 2930 2931 2933 2935 2936 2938 2940 2942 2944 2946 2948 2949 2951 2953
2877 2876 2876 2875 2874 2874 2874 2873 2872 2872 2871 2871 2870 2870 2869 2869 2869 2869 2868 2868 2868 2867 2867 2866 2866 2866 2866 2865 2865 2865 2864 2864 2864 2865 2865 2866 2867 2867 2868 2869 2869 2870 2872 2873 2874 2875 2878 2880 2882 2884 2886 2888 2890 2892 2894 2896 2898 2900 2902 2904 2905 2907 2909 2910 2912 2914 2916 2918 2919 2921 2923 2925 2926 2928 2930 2932 2934 2935 2937 2939 2941 2943 2945 2947 2949 2950
2875 2874 2874 2874 2873 2873 2872 2872 2871 2870 2870 2869 2869 2868 2868 2868 2867 2867 2866 2866 2866 2866 2865 2865 2865 2864 2864 2864 2864 2864 2863 2863 2862 2862 2863 2863 2864 2864 2864 2865 2865 2866 2868 2869 2870 2871 2873 2875 2877 2879 2882 2884 2886 2887 2889 2892 2894 2896 2898 2900 2902 2904 2905 2906 2908 2910 2912 2914 2916 2918 2920 2921 2923 2925 2927 2929 2931 2933 2934 2936 2938 2939 2941 2944 2946 2948
2873 2873 2873 2872 2872 2871 2871 2870 2869 2869 2869 2868 2867 2867 2867 2866 2866 2865 2865 2864 2864 2864 2864 2864 2863 2863 2863 2863 2863 2863 2862 2862 2861 2860 2860 2860 2860 2861 2862 2862 2863 2863 2864 2865 2867 2868 2869 2870 2872 2874 2876 2878 2880 2883 2885 2888 2890 2892 2894 2896 2898 2900 2901 2903 2905 2907 2908 2910 2912 2914 2916 2918 2920 2922 2924 2926 2928 2930 2931 2933 2934 2936 2938 2940 2943 2945
2871 2871 2871 2870 2870 2870 2869 2869 2868 2868 2867 2867 2866 2866 2865 2865 2864 2864 2863 2863 2863 2862 2862 2862 2861 2861 2861 2861 2861 2861 2861 2861 2860 2859 2859 2858 2858 2858 2859 2859 2859 2860 2860 2862 2863 2864 2865 2867 2868 2869 2871 2873 2875 2878 2880 2883 2886 2888 2890 2892 2894 2896 2898 2900 2903 2904 2904 2906 2908 2910 2912 2914 2917 2919 2920 2922 2924 2926 2928 2929 2931 2933 2935 2937 2939 2942
2869 2869 2869 2869 2868 2868 2867 2867 2867 2866 2866 2865 2865 2864 2864 2864 2863 2862 2862 2861 2861 2861 2860 2860 2860 2859 2859 2859 2859 2859 2859 2859 2859 2859 2858 2857 2856 2856 2856 2856 2856 2857 2857 2858 2859 2860 2862 2863 2864 2864 2866 2868 2870 2872 2875 2879 2882 2884 2886 2888 2890 2892 2894 2896 2898 2900 2901 2903 2905 2907 2909 2911 2913 2914 2916 2918 2920 2922 2924 2926 2928 2929 2932 2934 2936 2938
2868 2867 2867 2867 2866 2866 2866 2865 2865 2864 2864 2864 2863 2863 2862 2862 2861 2861 2860 2860 2859 2859 2859 2859 2858 2858 2857 2857 2857 2857 2857 2857 2857 2857 2857 2856 2855 2854 2853 2853 2853 2854 2854 2855 2856 2857 2858 2859 2860 2861 2863 2864 2865 2867 2870 2874 2877 2879 2881 2884 2886 2888 2890 2892 2894 2896 2898 2900 2902 2903 2905 2907 2909 2910 2912 2914 2916 2919 2921 2923 2925 2927 2929 2931 2933 2935
2866 2865 2865 2864 2864 2864 2864 2863 2863 2862 2862 2862 2861 2861 2860 2860 2859 2859 2858 2858 2858 2857 2857 2857 2857 2856 2855 2855 2855 2855 2854 2854 2854 2854 2854 2854 2853 2852 2851 2851 2851 2851 2852 2852 2853 2854 2854 2855 2856 2858 2859 2860 2861 2863 2865 2868 2871 2874 2876 2879 2881 2883 2885 2888 2890 2893 2895 2896 2898 2900 2901 2903 2904 2906 2908 2910 2913 2915 2917 2919 2922 2924 2926 2928 2930 2932
2863 2863 2862 2862 2862 2861 2861 2861 2860 2860 2860 2859 2859 2859 2859 2858 2857 2857 2856 2856 2855 2855 2855 2855 2854 2854 2854 2854 2853 2853 2852 2852 2852 2851 2851 2851 2851 2850 2850 2849 2849 2849 2849 2850 2850 2851 2852 2853 2854 2855 2856 2857 2858 2859 2861 2864 2866 2868 2870 2873 2876 2879 2881 2884 2886 2889 2890 2892 2894 2896 2898 2899 2901 2902 2904 2906 2908 2910 2913 2915 2918 2920 2923 2925 2927 2929
2861 2861 2860 2859 2859 2859 2859 2858 2858 2858 2857 2857 2857 2856 2856 2856 2855 2855 2854 2854 2853 2853 2852 2852 2852 2852 2852 2851 2851 2851 2850 2850 2849 2849 2849 2848 2848 2848 2848 2848 2848 2848 2848 2848 2848 2849 2849 2850 2851 2852 2853 2854 2856 2857 2859 2860 2861 2863 2865 2868 2871 2874 2876 2879 2881 2884 2886 2888 2890 2892 2894 2896 2898 2899 2901 2903 2904 2906 2909 2911 2914 2917 2919 2922 2924 2926
2859 2859 2858 2857 2857 2856 2856 2856 2855 2855 2854 2854 2854 2854 2854 2853 2853 2852 2852 2851 2851 2850 2850 2850 2849 2849 2849 2849 2849 2849 2849 2848 2848 2847 2847 2846 2846 2846 2846 2846 2846 2846 2846 2846 2846 2846 2846 2847 2848 2849 2850 2852 2854 2854 2856 2857 2858 2860 2862 2864 2866 2869 2871 2874 2876 2879 2881 2884 2886 2888 2890 2892 2894 2895 2897 2898 2900 2902 2904 2907 2909 2912 2915 2918 2921 2923